Time,TemperatureF,DewpointF,PressureIn,WindDirection,WindDirectionDegrees,WindSpeedMPH,WindSpeedGustMPH,Humidity,HourlyPrecipIn,Conditions,Clouds,dailyrainin,SoftwareType,DateUTC
2013-04-07 00:04:00,65.0,34.3,29.91,SW,225,1.3,3.6,32,0.00,,,0.00,WUHU216HW,2013-04-07 07:04:00,
2013-04-07 00:15:00,65.2,34.5,29.92,SW,225,0.4,3.1,32,0.00,,,0.00,WUHU216HW,2013-04-07 07:15:00,
2013-04-07 00:25:00,65.2,34.5,29.92,SSW,203,2.0,4.0,32,0.00,,,0.00,WUHU216HW,2013-04-07 07:25:00,
2013-04-07 00:35:00,65.2,34.5,29.92,SSE,158,3.4,5.1,32,0.00,,,0.00,WUHU216HW,2013-04-07 07:35:00,
2013-04-07 00:45:00,65.2,34.5,29.92,ESE,113,1.8,3.4,32,0.00,,,0.00,WUHU216HW,2013-04-07 07:45:00,
2013-04-07 00:55:00,64.8,34.2,29.92,ENE,68,0.4,1.1,32,0.00,,,0.00,WUHU216HW,2013-04-07 07:55:00,
2013-04-07 01:05:00,64.1,33.5,29.92,ENE,68,0.0,1.8,32,0.00,,,0.00,WUHU216HW,2013-04-07 08:05:00,
2013-04-07 01:15:00,63.4,32.9,29.91,NNE,23,0.2,1.3,32,0.00,,,0.00,WUHU216HW,2013-04-07 08:15:00,
2013-04-07 01:25:00,63.0,33.3,29.91,NNW,338,0.0,0.7,33,0.00,,,0.00,WUHU216HW,2013-04-07 08:25:00,
2013-04-07 01:36:00,62.3,32.6,29.91,East,90,0.0,0.7,33,0.00,,,0.00,WUHU216HW,2013-04-07 08:36:00,
2013-04-07 01:46:00,61.7,32.9,29.91,East,90,0.4,0.9,34,0.00,,,0.00,WUHU216HW,2013-04-07 08:46:00,
2013-04-07 01:56:00,61.2,32.4,29.91,ENE,68,0.0,1.1,34,0.00,,,0.00,WUHU216HW,2013-04-07 08:56:00,
2013-04-07 02:06:00,60.8,32.0,29.90,ESE,113,0.4,0.4,34,0.00,,,0.00,WUHU216HW,2013-04-07 09:06:00,
2013-04-07 02:16:00,60.3,33.0,29.90,East,90,0.2,1.1,36,0.00,,,0.00,WUHU216HW,2013-04-07 09:16:00,
2013-04-07 02:26:00,59.8,32.6,29.90,East,90,0.9,1.3,36,0.00,,,0.00,WUHU216HW,2013-04-07 09:26:00,
2013-04-07 02:36:00,59.4,32.9,29.89,ESE,113,0.4,1.8,37,0.00,,,0.00,WUHU216HW,2013-04-07 09:36:00,
2013-04-07 02:47:00,59.4,32.9,29.89,SE,135,2.2,2.2,37,0.00,,,0.00,WUHU216HW,2013-04-07 09:47:00,
2013-04-07 02:57:00,59.0,32.7,29.89,ESE,113,0.9,1.8,37,0.00,,,0.00,WUHU216HW,2013-04-07 09:57:00,
2013-04-07 03:07:00,58.7,33.0,29.88,SSE,158,0.0,0.7,38,0.00,,,0.00,WUHU216HW,2013-04-07 10:07:00,
2013-04-07 03:17:00,58.3,32.7,29.88,SSE,158,0.0,0.0,38,0.00,,,0.00,WUHU216HW,2013-04-07 10:17:00,
2013-04-07 03:27:00,58.0,33.0,29.88,SSE,158,0.0,0.7,39,0.00,,,0.00,WUHU216HW,2013-04-07 10:27:00,
2013-04-07 03:37:00,57.4,32.6,29.88,ESE,113,0.4,0.4,39,0.00,,,0.00,WUHU216HW,2013-04-07 10:37:00,
2013-04-07 03:47:00,57.1,32.9,29.88,ESE,113,0.7,0.9,40,0.00,,,0.00,WUHU216HW,2013-04-07 10:47:00,
2013-04-07 03:57:00,56.9,32.8,29.88,ESE,113,0.0,1.3,40,0.00,,,0.00,WUHU216HW,2013-04-07 10:57:00,
2013-04-07 04:07:00,56.5,32.5,29.87,ESE,113,0.0,0.7,40,0.00,,,0.00,WUHU216HW,2013-04-07 11:07:00,
2013-04-07 04:17:00,56.3,32.9,29.88,ENE,68,0.2,1.1,41,0.00,,,0.00,WUHU216HW,2013-04-07 11:17:00,
2013-04-07 04:27:00,56.2,32.7,29.88,ESE,113,0.7,1.1,41,0.00,,,0.00,WUHU216HW,2013-04-07 11:27:00,
2013-04-07 04:37:00,55.8,32.9,29.88,East,90,1.1,2.0,42,0.00,,,0.00,WUHU216HW,2013-04-07 11:37:00,
2013-04-07 04:47:00,55.8,33.5,29.88,ESE,113,1.8,1.8,43,0.00,,,0.00,WUHU216HW,2013-04-07 11:47:00,
2013-04-07 04:58:00,55.4,33.2,29.88,East,90,2.2,2.5,43,0.00,,,0.00,WUHU216HW,2013-04-07 11:58:00,
2013-04-07 05:08:00,55.4,33.2,29.88,East,90,3.4,3.4,43,0.00,,,0.00,WUHU216HW,2013-04-07 12:08:00,
2013-04-07 05:18:00,55.3,33.6,29.88,ESE,113,0.7,2.5,44,0.00,,,0.00,WUHU216HW,2013-04-07 12:18:00,
2013-04-07 05:28:00,55.1,33.4,29.89,ESE,113,1.8,1.8,44,0.00,,,0.00,WUHU216HW,2013-04-07 12:28:00,
2013-04-07 05:38:00,55.1,33.4,29.89,ESE,113,1.1,1.8,44,0.00,,,0.00,WUHU216HW,2013-04-07 12:38:00,
2013-04-07 05:48:00,55.1,33.4,29.89,ESE,113,0.7,1.8,44,0.00,,,0.00,WUHU216HW,2013-04-07 12:48:00,
2013-04-07 05:58:00,54.9,33.2,29.89,ESE,113,0.2,1.1,44,0.00,,,0.00,WUHU216HW,2013-04-07 12:58:00,
2013-04-07 06:08:00,54.7,33.1,29.89,ESE,113,0.0,0.4,44,0.00,,,0.00,WUHU216HW,2013-04-07 13:08:00,
2013-04-07 06:18:00,54.4,33.3,29.90,SE,135,0.0,0.0,45,0.00,,,0.00,WUHU216HW,2013-04-07 13:18:00,
2013-04-07 06:28:00,53.5,33.0,29.91,SW,225,0.0,3.4,46,0.00,,,0.00,WUHU216HW,2013-04-07 13:28:00,
2013-04-07 06:38:00,53.6,33.2,29.91,SSE,158,0.4,1.1,46,0.00,,,0.00,WUHU216HW,2013-04-07 13:38:00,
2013-04-07 06:48:00,54.2,33.8,29.91,SE,135,1.1,1.8,46,0.00,,,0.00,WUHU216HW,2013-04-07 13:48:00,
2013-04-07 06:58:00,55.1,35.1,29.91,SE,135,1.1,1.3,47,0.00,,,0.00,WUHU216HW,2013-04-07 13:58:00,
2013-04-07 07:09:00,56.3,35.7,29.91,ESE,113,1.1,2.0,46,0.00,,,0.00,WUHU216HW,2013-04-07 14:09:00,
2013-04-07 07:19:00,58.0,36.1,29.92,ENE,68,0.4,2.0,44,0.00,,,0.00,WUHU216HW,2013-04-07 14:19:00,
2013-04-07 07:29:00,59.8,37.1,29.92,NE,45,0.0,1.3,43,0.00,,,0.00,WUHU216HW,2013-04-07 14:29:00,
2013-04-07 07:39:00,61.0,37.1,29.92,ENE,68,0.4,1.6,41,0.00,,,0.00,WUHU216HW,2013-04-07 14:39:00,
2013-04-07 07:49:00,62.3,37.6,29.92,ESE,113,2.0,2.0,40,0.00,,,0.00,WUHU216HW,2013-04-07 14:49:00,
2013-04-07 07:59:00,63.7,38.3,29.92,SSE,158,0.7,2.5,39,0.00,,,0.00,WUHU216HW,2013-04-07 14:59:00,
2013-04-07 08:09:00,64.8,38.5,29.92,SSE,158,0.7,2.9,38,0.00,,,0.00,WUHU216HW,2013-04-07 15:09:00,
2013-04-07 08:19:00,66.2,39.1,29.92,SW,225,1.3,3.4,37,0.00,,,0.00,WUHU216HW,2013-04-07 15:19:00,
2013-04-07 08:29:00,67.9,39.0,29.92,SSW,203,2.0,3.4,35,0.00,,,0.00,WUHU216HW,2013-04-07 15:29:00,
2013-04-07 08:39:00,69.3,39.5,29.92,SW,225,1.8,3.4,34,0.00,,,0.00,WUHU216HW,2013-04-07 15:39:00,
2013-04-07 08:49:00,70.4,39.1,29.92,SW,225,0.0,2.5,32,0.00,,,0.00,WUHU216HW,2013-04-07 15:49:00,
2013-04-07 08:59:00,71.3,39.2,29.92,SW,225,0.4,1.8,31,0.00,,,0.00,WUHU216HW,2013-04-07 15:59:00,
2013-04-07 09:10:00,72.2,39.2,29.92,SW,225,3.4,3.4,30,0.00,,,0.00,WUHU216HW,2013-04-07 16:10:00,
2013-04-07 09:20:00,72.9,38.7,29.92,ESE,113,0.7,2.7,29,0.00,,,0.00,WUHU216HW,2013-04-07 16:20:00,
2013-04-07 09:31:00,73.6,38.3,29.92,SW,225,1.8,3.4,28,0.00,,,0.00,WUHU216HW,2013-04-07 16:31:00,
2013-04-07 09:41:00,74.5,39.1,29.92,SSW,203,4.7,4.7,28,0.00,,,0.00,WUHU216HW,2013-04-07 16:41:00,
2013-04-07 09:51:00,75.6,38.0,29.92,North,0,0.9,4.5,26,0.00,,,0.00,WUHU216HW,2013-04-07 16:51:00,
2013-04-07 10:01:00,76.1,37.4,29.92,SE,135,0.4,3.4,25,0.00,,,0.00,WUHU216HW,2013-04-07 17:01:00,
2013-04-07 10:11:00,76.9,37.0,29.92,SSW,203,3.4,5.6,24,0.00,,,0.00,WUHU216HW,2013-04-07 17:11:00,
2013-04-07 10:21:00,77.6,37.5,29.92,SE,135,1.6,4.3,24,0.00,,,0.00,WUHU216HW,2013-04-07 17:21:00,
2013-04-07 10:32:00,78.1,36.9,29.91,SW,225,4.7,4.9,23,0.00,,,0.00,WUHU216HW,2013-04-07 17:32:00,
2013-04-07 10:42:00,78.3,36.0,29.91,NW,315,1.3,3.8,22,0.00,,,0.00,WUHU216HW,2013-04-07 17:42:00,
2013-04-07 10:52:00,78.5,35.1,29.91,West,270,4.0,6.0,21,0.00,,,0.00,WUHU216HW,2013-04-07 17:52:00,
2013-04-07 11:02:00,79.2,35.7,29.91,SE,135,2.9,5.1,21,0.00,,,0.00,WUHU216HW,2013-04-07 18:02:00,
2013-04-07 11:12:00,80.1,33.9,29.91,WSW,248,1.1,8.5,19,0.00,,,0.00,WUHU216HW,2013-04-07 18:12:00,
2013-04-07 11:22:00,80.1,33.9,29.90,SW,225,3.4,3.4,19,0.00,,,0.00,WUHU216HW,2013-04-07 18:22:00,
2013-04-07 11:32:00,80.5,34.1,29.90,West,270,2.9,6.7,19,0.00,,,0.00,WUHU216HW,2013-04-07 18:32:00,
2013-04-07 11:42:00,81.2,33.0,29.90,SSW,203,5.1,5.1,18,0.00,,,0.00,WUHU216HW,2013-04-07 18:42:00,
2013-04-07 11:52:00,81.7,33.5,29.89,SSE,158,2.9,4.3,18,0.00,,,0.00,WUHU216HW,2013-04-07 18:52:00,
2013-04-07 12:02:00,81.9,32.0,29.88,West,270,4.0,5.1,17,0.00,,,0.00,WUHU216HW,2013-04-07 19:02:00,
2013-04-07 12:12:00,82.3,32.2,29.88,WNW,293,2.2,6.7,17,0.00,,,0.00,WUHU216HW,2013-04-07 19:12:00,
2013-04-07 12:22:00,82.6,32.5,29.87,SW,225,2.5,6.0,17,0.00,,,0.00,WUHU216HW,2013-04-07 19:22:00,
2013-04-07 12:33:00,82.8,31.0,29.87,South,180,4.0,4.0,16,0.00,,,0.00,WUHU216HW,2013-04-07 19:33:00,
2013-04-07 12:43:00,83.5,31.5,29.87,SW,225,2.2,4.9,16,0.00,,,0.00,WUHU216HW,2013-04-07 19:43:00,
2013-04-07 12:53:00,82.8,29.3,29.86,WSW,248,6.9,6.9,15,0.00,,,0.00,WUHU216HW,2013-04-07 19:53:00,
2013-04-07 13:03:00,83.2,29.5,29.86,NW,315,6.0,7.6,15,0.00,,,0.00,WUHU216HW,2013-04-07 20:03:00,
2013-04-07 13:13:00,83.7,30.0,29.85,NW,315,2.9,7.8,15,0.00,,,0.00,WUHU216HW,2013-04-07 20:13:00,
2013-04-07 13:23:00,84.8,30.8,29.85,SSE,158,2.2,7.6,15,0.00,,,0.00,WUHU216HW,2013-04-07 20:23:00,
2013-04-07 13:33:00,84.8,30.8,29.85,WSW,248,4.7,7.8,15,0.00,,,0.00,WUHU216HW,2013-04-07 20:33:00,
2013-04-07 13:43:00,84.6,30.6,29.84,SSW,203,3.6,6.9,15,0.00,,,0.00,WUHU216HW,2013-04-07 20:43:00,
2013-04-07 13:53:00,85.3,27.8,29.84,South,180,4.3,5.8,13,0.00,,,0.00,WUHU216HW,2013-04-07 20:53:00,
2013-04-07 14:03:00,85.9,28.2,29.83,West,270,4.0,7.6,13,0.00,,,0.00,WUHU216HW,2013-04-07 21:03:00,
2013-04-07 14:13:00,85.0,27.5,29.83,WSW,248,1.8,5.4,13,0.00,,,0.00,WUHU216HW,2013-04-07 21:13:00,
2013-04-07 14:23:00,85.7,28.1,29.82,SSW,203,4.0,9.2,13,0.00,,,0.00,WUHU216HW,2013-04-07 21:23:00,
2013-04-07 14:33:00,85.9,26.5,29.82,WSW,248,6.9,6.9,12,0.00,,,0.00,WUHU216HW,2013-04-07 21:33:00,
2013-04-07 14:43:00,85.3,27.8,29.82,NW,315,2.9,6.9,13,0.00,,,0.00,WUHU216HW,2013-04-07 21:43:00,
2013-04-07 14:54:00,85.1,27.6,29.81,WNW,293,3.1,8.5,13,0.00,,,0.00,WUHU216HW,2013-04-07 21:54:00,
2013-04-07 15:04:00,85.7,26.4,29.81,SW,225,5.8,9.4,12,0.00,,,0.00,WUHU216HW,2013-04-07 22:04:00,
2013-04-07 15:14:00,85.5,26.2,29.80,WSW,248,4.0,6.3,12,0.00,,,0.00,WUHU216HW,2013-04-07 22:14:00,
2013-04-07 15:24:00,85.9,24.8,29.80,WSW,248,6.3,14.1,11,0.00,,,0.00,WUHU216HW,2013-04-07 22:24:00,
2013-04-07 15:34:00,85.1,25.9,29.80,WNW,293,4.7,5.6,12,0.00,,,0.00,WUHU216HW,2013-04-07 22:34:00,
2013-04-07 15:44:00,85.5,26.2,29.80,West,270,4.9,8.5,12,0.00,,,0.00,WUHU216HW,2013-04-07 22:44:00,
2013-04-07 15:55:00,85.5,26.2,29.80,West,270,4.3,6.3,12,0.00,,,0.00,WUHU216HW,2013-04-07 22:55:00,
2013-04-07 16:05:00,85.3,26.1,29.79,NNW,338,6.9,6.9,12,0.00,,,0.00,WUHU216HW,2013-04-07 23:05:00,
2013-04-07 16:15:00,85.5,26.2,29.79,WSW,248,6.3,9.8,12,0.00,,,0.00,WUHU216HW,2013-04-07 23:15:00,
2013-04-07 16:25:00,85.1,25.9,29.79,NNW,338,7.8,7.8,12,0.00,,,0.00,WUHU216HW,2013-04-07 23:25:00,
2013-04-07 16:35:00,85.0,25.7,29.79,WSW,248,2.2,6.3,12,0.00,,,0.00,WUHU216HW,2013-04-07 23:35:00,
2013-04-07 16:45:00,85.1,25.9,29.79,South,180,3.4,8.5,12,0.00,,,0.00,WUHU216HW,2013-04-07 23:45:00,
2013-04-07 16:55:00,85.0,25.7,29.79,West,270,3.1,7.6,12,0.00,,,0.00,WUHU216HW,2013-04-07 23:55:00,
2013-04-07 17:05:00,84.8,25.7,29.78,NNW,338,5.4,5.6,12,0.00,,,0.00,WUHU216HW,2013-04-08 00:05:00,
2013-04-07 17:15:00,84.2,26.9,29.78,NNW,338,6.3,6.9,13,0.00,,,0.00,WUHU216HW,2013-04-08 00:15:00,
2013-04-07 17:25:00,84.2,26.9,29.78,NNW,338,4.3,7.6,13,0.00,,,0.00,WUHU216HW,2013-04-08 00:25:00,
2013-04-07 17:35:00,83.9,26.6,29.78,WSW,248,5.4,8.3,13,0.00,,,0.00,WUHU216HW,2013-04-08 00:35:00,
2013-04-07 17:45:00,83.5,29.8,29.78,WSW,248,2.5,6.3,15,0.00,,,0.00,WUHU216HW,2013-04-08 00:45:00,
2013-04-07 17:55:00,83.2,29.5,29.78,WSW,248,3.4,5.6,15,0.00,,,0.00,WUHU216HW,2013-04-08 00:55:00,
2013-04-07 18:06:00,82.6,29.1,29.78,WSW,248,4.0,6.3,15,0.00,,,0.00,WUHU216HW,2013-04-08 01:06:00,
2013-04-07 18:16:00,82.3,28.8,29.78,NW,315,2.9,6.3,15,0.00,,,0.00,WUHU216HW,2013-04-08 01:16:00,
2013-04-07 18:26:00,81.7,28.5,29.78,NNW,338,5.8,6.5,15,0.00,,,0.00,WUHU216HW,2013-04-08 01:26:00,
2013-04-07 18:36:00,81.2,28.0,29.78,NW,315,2.5,4.0,15,0.00,,,0.00,WUHU216HW,2013-04-08 01:36:00,
2013-04-07 18:46:00,80.6,29.3,29.78,NW,315,1.3,4.7,16,0.00,,,0.00,WUHU216HW,2013-04-08 01:46:00,
2013-04-07 18:56:00,79.9,28.6,29.78,WNW,293,1.1,5.4,16,0.00,,,0.00,WUHU216HW,2013-04-08 01:56:00,
2013-04-07 19:06:00,79.2,28.0,29.78,West,270,1.1,1.6,16,0.00,,,0.00,WUHU216HW,2013-04-08 02:06:00,
2013-04-07 19:17:00,78.5,27.5,29.78,West,270,0.2,1.6,16,0.00,,,0.00,WUHU216HW,2013-04-08 02:17:00,
2013-04-07 19:27:00,77.6,28.4,29.78,West,270,0.4,1.1,17,0.00,,,0.00,WUHU216HW,2013-04-08 02:27:00,
2013-04-07 19:37:00,76.9,29.5,29.78,West,270,0.2,1.8,18,0.00,,,0.00,WUHU216HW,2013-04-08 02:37:00,
2013-04-07 19:47:00,76.3,29.1,29.78,West,270,0.0,1.3,18,0.00,,,0.00,WUHU216HW,2013-04-08 02:47:00,
2013-04-07 19:57:00,75.2,28.2,29.78,WSW,248,0.0,0.4,18,0.00,,,0.00,WUHU216HW,2013-04-08 02:57:00,
2013-04-07 20:07:00,74.2,29.0,29.78,WSW,248,0.0,0.0,19,0.00,,,0.00,WUHU216HW,2013-04-08 03:07:00,
2013-04-07 20:17:00,73.4,28.5,29.79,SW,225,0.0,0.0,19,0.00,,,0.00,WUHU216HW,2013-04-08 03:17:00,
2013-04-07 20:27:00,72.4,30.2,29.79,SSW,203,0.0,0.2,21,0.00,,,0.00,WUHU216HW,2013-04-08 03:27:00,
2013-04-07 20:37:00,71.3,30.3,29.79,South,180,0.0,0.0,22,0.00,,,0.00,WUHU216HW,2013-04-08 03:37:00,
2013-04-07 20:47:00,70.4,29.4,29.79,ESE,113,0.0,0.4,22,0.00,,,0.00,WUHU216HW,2013-04-08 03:47:00,
2013-04-07 20:57:00,69.7,29.9,29.79,ESE,113,0.0,0.4,23,0.00,,,0.00,WUHU216HW,2013-04-08 03:57:00,
2013-04-07 21:08:00,68.9,29.3,29.79,ESE,113,0.0,0.0,23,0.00,,,0.00,WUHU216HW,2013-04-08 04:08:00,
2013-04-07 21:18:00,68.2,28.7,29.79,ESE,113,0.7,1.3,23,0.00,,,0.00,WUHU216HW,2013-04-08 04:18:00,
2013-04-07 21:28:00,67.7,29.3,29.79,East,90,0.0,0.7,24,0.00,,,0.00,WUHU216HW,2013-04-08 04:28:00,
2013-04-07 21:38:00,67.0,28.6,29.79,SSE,158,0.0,0.4,24,0.00,,,0.00,WUHU216HW,2013-04-08 04:38:00,
2013-04-07 21:48:00,66.6,29.3,29.79,South,180,0.4,0.7,25,0.00,,,0.00,WUHU216HW,2013-04-08 04:48:00,
2013-04-07 21:58:00,66.2,29.0,29.79,SW,225,1.1,4.3,25,0.00,,,0.00,WUHU216HW,2013-04-08 04:58:00,
2013-04-07 22:08:00,66.4,29.2,29.80,WSW,248,0.4,1.3,25,0.00,,,0.00,WUHU216HW,2013-04-08 05:08:00,
2013-04-07 22:18:00,66.6,30.3,29.79,NW,315,0.7,1.1,26,0.00,,,0.00,WUHU216HW,2013-04-08 05:18:00,
2013-04-07 22:28:00,66.6,30.3,29.79,North,0,0.4,1.3,26,0.00,,,0.00,WUHU216HW,2013-04-08 05:28:00,
2013-04-07 22:38:00,67.0,31.6,29.79,NW,315,1.3,2.0,27,0.00,,,0.00,WUHU216HW,2013-04-08 05:38:00,
2013-04-07 22:48:00,67.1,30.8,29.78,SSE,158,0.7,1.1,26,0.00,,,0.00,WUHU216HW,2013-04-08 05:48:00,
2013-04-07 22:58:00,66.4,31.1,29.78,SSE,158,0.9,1.1,27,0.00,,,0.00,WUHU216HW,2013-04-08 05:58:00,
2013-04-07 23:08:00,65.7,31.5,29.79,SSE,158,1.1,1.6,28,0.00,,,0.00,WUHU216HW,2013-04-08 06:08:00,
2013-04-07 23:18:00,65.0,31.9,29.79,SE,135,0.2,1.1,29,0.00,,,0.00,WUHU216HW,2013-04-08 06:18:00,
2013-04-07 23:29:00,64.6,32.6,29.78,SSE,158,1.1,2.0,30,0.00,,,0.00,WUHU216HW,2013-04-08 06:29:00,
2013-04-07 23:39:00,64.6,32.6,29.79,SE,135,1.8,3.4,30,0.00,,,0.00,WUHU216HW,2013-04-08 06:39:00,
2013-04-07 23:49:00,65.2,33.0,29.79,SSE,158,0.0,3.6,30,0.00,,,0.00,WUHU216HW,2013-04-08 06:49:00,
2013-04-07 23:59:00,65.2,32.0,29.79,SSE,158,0.7,1.3,29,0.00,,,0.00,WUHU216HW,2013-04-08 06:59:00,